FW5816 Weather Reports


Display with metric or nautical units.
time (UTC)temp
F
wind
direction
speed
MPH
gust
MPH
rain 1hr
in
rain 24hr
in
rain mn
in
humidity
%
barometer
mb
20260507033513 49 0 0.0 1.0 0.00 0.72 0.65 89 1015.1
20260507033034 49 0 0.0 1.0 0.00 0.72 0.65 88 1015.1
20260507032516 49 37 0.0 1.0 0.00 0.72 0.65 87 1015.0
20260507032014 49 0 0.0 0.0 0.00 0.72 0.65 86 1014.9
20260507031533 49 0 0.0 1.0 0.00 0.72 0.65 85 1014.8
20260507031013 50 0 0.0 1.0 0.00 0.72 0.65 85 1014.7
20260507030517 50 0 0.0 0.0 0.00 0.72 0.65 85 1014.8
20260507030030 50 0 0.0 0.0 0.00 0.72 0.65 84 1014.7
20260507025512 50 0 0.0 0.0 0.00 0.73 0.65 84 1014.7
20260507025015 50 0 0.0 0.0 0.00 0.73 0.65 83 1014.6
20260507024532 51 0 0.0 0.0 0.00 0.73 0.65 83 1014.6
20260507024014 51 0 0.0 0.0 0.00 0.73 0.65 83 1014.5
20260507023513 51 0 0.0 0.0 0.00 0.73 0.65 82 1014.5
20260507023030 51 0 0.0 0.0 0.00 0.73 0.65 82 1014.6
20260507022513 51 0 0.0 0.0 0.00 0.73 0.65 80 1014.4
20260507022015 52 0 0.0 0.0 0.00 0.73 0.65 79 1014.5
20260507021530 52 0 0.0 0.0 0.00 0.73 0.65 79 1014.5
20260507021011 52 0 0.0 0.0 0.00 0.73 0.65 78 1014.4
20260507020513 53 0 0.0 0.0 0.00 0.73 0.65 77 1014.1
20260507020045 53 0 0.0 0.0 0.00 0.73 0.65 77 1014.2
20260507015510 53 0 0.0 0.0 0.00 0.73 0.65 76 1014.2
20260507015012 53 0 0.0 0.0 0.00 0.73 0.65 75 1014.2
20260507014534 54 0 0.0 0.0 0.00 0.73 0.65 73 1014.1
20260507014010 54 0 0.0 0.0 0.00 0.73 0.65 72 1014.1
20260507013512 55 0 0.0 0.0 0.00 0.73 0.65 72 1014.3
20260507013029 55 0 0.0 0.0 0.00 0.73 0.65 70 1014.1
20260507012512 55 0 0.0 1.0 0.00 0.73 0.65 68 1014.2
20260507012014 55 0 0.0 1.0 0.00 0.73 0.65 68 1014.2
20260507011541 55 37 0.0 2.0 0.00 0.73 0.65 67 1014.3
20260507011010 56 0 0.0 2.0 0.00 0.73 0.65 66 1014.1
20260507010513 56 37 1.0 2.0 0.00 0.73 0.65 65 1014.0
20260507010034 56 37 1.0 2.0 0.00 0.73 0.65 65 1014.1
20260507005511 56 36 1.0 2.0 0.00 0.74 0.65 65 1014.1
20260507005013 56 39 1.0 2.0 0.00 0.74 0.65 65 1014.2
20260507004531 56 5 0.0 1.0 0.00 0.74 0.65 65 1014.0
20260507004010 56 0 0.0 2.0 0.00 0.74 0.65 66 1014.2
20260507003515 57 6 0.0 2.0 0.00 0.74 0.65 65 1014.1
20260507003030 57 6 1.0 5.0 0.00 0.74 0.65 65 1014.2
20260507002513 57 33 1.0 5.0 0.00 0.74 0.65 64 1014.0
20260507002015 57 12 0.0 5.0 0.00 0.74 0.65 65 1014.0
20260507001602 57 324 1.0 5.0 0.00 0.74 0.65 64 1014.0
20260507001012 57 43 2.0 7.0 0.00 0.74 0.65 64 1014.1
20260507000514 57 339 3.0 7.0 0.00 0.74 0.65 63 1013.9
20260507000040 57 21 1.0 4.0 0.00 0.74 0.65 63 1013.9
20260506235511 57 311 1.0 5.0 0.00 0.80 0.65 62 1013.7
20260506235014 57 51 3.0 6.0 0.00 0.80 0.65 62 1013.7
20260506234531 57 51 2.0 6.0 0.00 0.80 0.65 62 1013.5
20260506234010 57 318 3.0 6.0 0.00 0.80 0.65 61 1013.5
20260506233510 57 7 2.0 6.0 0.00 0.80 0.65 63 1013.6
20260506233030 57 340 2.0 6.0 0.00 0.80 0.65 63 1013.6
20260506232510 57 325 3.0 6.0 0.00 0.80 0.65 63 1013.9
20260506232012 58 20 3.0 6.0 0.00 0.80 0.65 62 1013.9
20260506231531 58 9 3.0 6.0 0.00 0.80 0.65 62 1013.7
20260506231013 58 20 2.0 7.0 0.00 0.80 0.65 62 1013.6
20260506230517 58 0 2.0 7.0 0.00 0.80 0.65 62 1013.7
20260506230049 58 355 4.0 7.0 0.00 0.80 0.65 60 1013.7
20260506225513 58 323 1.0 7.0 0.00 0.91 0.65 61 1013.7
20260506225013 58 345 2.0 8.0 0.00 0.91 0.65 60 1013.5
20260506224530 58 359 3.0 8.0 0.00 0.91 0.65 60 1013.2
20260506224011 58 333 4.0 11.0 0.00 0.91 0.65 59 1013.3
20260506223512 58 295 4.0 11.0 0.00 0.91 0.65 60 1013.0
20260506223032 58 345 4.0 11.0 0.00 0.91 0.65 59 1013.0
20260506222516 58 46 3.0 6.0 0.00 0.91 0.65 59 1013.1
20260506222011 58 11 3.0 8.0 0.00 0.91 0.65 59 1013.1
20260506221530 59 344 4.0 8.0 0.00 0.91 0.65 58 1013.1
20260506221013 59 25 4.0 9.0 0.00 0.91 0.65 59 1013.2
20260506220513 59 353 4.0 9.0 0.00 0.91 0.65 59 1013.1
20260506220035 59 338 4.0 9.0 0.00 0.91 0.65 59 1013.0
20260506215510 59 261 3.0 7.0 0.00 0.91 0.65 59 1012.9
20260506215011 59 27 3.0 8.0 0.00 0.91 0.65 59 1012.8
20260506214529 59 355 4.0 8.0 0.00 0.91 0.65 59 1013.0
20260506214013 59 35 4.0 10.0 0.00 0.91 0.65 58 1013.0
20260506213515 59 351 3.0 10.0 0.00 0.91 0.65 58 1013.3
20260506213033 59 28 5.0 8.0 0.00 0.91 0.65 58 1013.2
20260506212511 60 7 3.0 7.0 0.00 0.91 0.65 58 1013.1
20260506212017 60 280 1.0 6.0 0.00 0.91 0.65 60 1013.4
20260506211530 60 332 2.0 5.0 0.00 0.91 0.65 59 1013.5
20260506211013 60 328 2.0 6.0 0.00 0.91 0.65 59 1013.4
20260506210517 60 282 1.0 6.0 0.00 0.91 0.65 59 1013.3
20260506210047 60 356 3.0 6.0 0.00 0.91 0.65 58 1013.1
20260506205511 60 336 1.0 6.0 0.00 0.91 0.65 59 1013.3
20260506205017 60 274 1.0 8.0 0.00 0.91 0.65 59 1013.2
20260506204530 60 336 3.0 8.0 0.00 0.91 0.65 58 1013.4
20260506204013 60 6 5.0 9.0 0.00 0.91 0.65 56 1013.4
20260506203514 61 342 4.0 9.0 0.00 0.91 0.65 57 1013.4
20260506203031 61 11 2.0 7.0 0.00 0.91 0.65 58 1013.3
20260506202515 61 43 3.0 10.0 0.00 0.91 0.65 55 1013.4
20260506202015 60 324 3.0 10.0 0.00 0.91 0.65 57 1013.2
20260506201530 60 356 3.0 11.0 0.00 0.91 0.65 55 1013.1
20260506201013 60 359 5.0 11.0 0.00 0.91 0.65 56 1013.3
20260506200512 60 39 2.0 10.0 0.00 0.91 0.65 56 1013.5
20260506200034 60 315 3.0 10.0 0.00 0.91 0.65 56 1013.4
20260506195511 60 352 3.0 7.0 0.00 1.01 0.65 57 1013.3
20260506195016 60 318 3.0 7.0 0.00 1.01 0.65 59 1013.6
20260506194532 61 19 2.0 7.0 0.00 1.01 0.65 57 1013.6
20260506194016 60 335 2.0 7.0 0.00 1.01 0.65 58 1013.5
20260506193511 60 311 3.0 11.0 0.00 1.01 0.65 61 1013.5
20260506193036 61 345 4.0 12.0 0.00 1.01 0.65 59 1013.3
20260506192510 61 356 5.0 12.0 0.00 1.01 0.65 59 1013.3
20260506192012 61 336 3.0 10.0 0.00 1.01 0.65 59 1013.1
20260506191530 61 327 2.0 10.0 0.00 1.01 0.65 58 1013.0
20260506191010 60 358 4.0 11.0 0.00 1.01 0.65 57 1013.1
20260506190511 61 35 6.0 11.0 0.00 1.01 0.65 59 1013.2
20260506190033 61 32 3.0 8.0 0.00 1.01 0.65 59 1013.3
20260506185514 61 297 4.0 9.0 0.00 1.30 0.65 59 1013.3
20260506185012 61 348 3.0 9.0 0.00 1.30 0.65 58 1013.5
20260506184537 61 32 4.0 9.0 0.00 1.30 0.65 58 1013.4
20260506184010 61 55 2.0 10.0 0.00 1.30 0.65 58 1013.2
20260506183512 60 288 3.0 10.0 0.00 1.30 0.65 56 1013.1
20260506183030 60 349 4.0 11.0 0.00 1.30 0.65 58 1013.2
20260506182511 60 352 5.0 12.0 0.00 1.30 0.65 57 1013.0
20260506182016 59 43 7.0 12.0 0.00 1.30 0.65 58 1012.9
20260506181539 60 5 7.0 12.0 0.00 1.30 0.65 58 1012.9
20260506181016 60 354 6.0 12.0 0.00 1.30 0.65 58 1013.0
20260506180511 61 25 3.0 7.0 0.00 1.30 0.65 58 1013.0
20260506180030 60 80 3.0 8.0 0.00 1.30 0.65 60 1013.0
20260506175511 59 342 3.0 11.0 0.00 1.30 0.65 62 1012.9
20260506175009 59 349 7.0 11.0 0.00 1.30 0.65 61 1012.8
20260506174534 59 35 5.0 10.0 0.00 1.30 0.65 61 1012.9
20260506174013 59 359 3.0 10.0 0.00 1.30 0.65 62 1013.0
20260506173512 59 269 2.0 8.0 0.00 1.30 0.65 60 1013.0
20260506173032 59 15 3.0 9.0 0.00 1.30 0.65 61 1013.0
20260506172512 59 59 3.0 9.0 0.00 1.30 0.65 60 1013.2
20260506172014 59 4 3.0 10.0 0.00 1.30 0.65 62 1013.3
20260506171533 58 29 4.0 10.0 0.00 1.30 0.65 63 1013.2
20260506171013 58 36 4.0 10.0 0.00 1.30 0.65 62 1013.2
20260506170509 58 57 6.0 10.0 0.00 1.30 0.65 63 1013.4
20260506170037 58 309 3.0 8.0 0.00 1.30 0.65 64 1013.3
20260506165512 58 34 2.0 10.0 0.00 1.30 0.65 65 1013.4
20260506165013 57 21 6.0 12.0 0.00 1.30 0.65 62 1013.4
20260506164546 57 0 2.0 12.0 0.00 1.30 0.65 63 1013.4
20260506164011 58 41 4.0 12.0 0.00 1.30 0.65 63 1013.5
20260506163513 58 28 4.0 9.0 0.00 1.30 0.65 63 1013.6
20260506163035 57 35 3.0 11.0 0.00 1.30 0.65 66 1013.6
20260506162511 56 37 3.0 11.0 0.00 1.30 0.65 66 1013.6
20260506162011 56 20 6.0 11.0 0.00 1.30 0.65 66 1013.6
20260506161530 55 307 4.0 11.0 0.00 1.30 0.65 68 1013.6
20260506161015 55 359 7.0 11.0 0.00 1.30 0.65 67 1013.7
20260506160513 55 24 2.0 10.0 0.00 1.30 0.65 68 1013.8
20260506160034 55 27 6.0 10.0 0.00 1.30 0.65 66 1013.6
20260506155514 55 73 5.0 13.0 0.00 1.30 0.65 69 1013.4
20260506155013 54 10 5.0 13.0 0.00 1.30 0.65 68 1013.4
20260506154533 54 11 5.0 13.0 0.00 1.30 0.65 72 1013.4
20260506154014 54 356 3.0 11.0 0.00 1.30 0.65 71 1013.2
20260506153514 54 32 4.0 8.0 0.00 1.30 0.65 69 1013.3
20260506153032 54 356 3.0 10.0 0.00 1.30 0.65 70 1013.0
20260506152510 53 7 4.0 11.0 0.00 1.30 0.65 75 1012.9
20260506152015 53 45 7.0 11.0 0.00 1.30 0.65 74 1013.1
20260506151533 53 39 3.0 10.0 0.00 1.30 0.65 75 1013.1
20260506151011 52 6 4.0 11.0 0.00 1.30 0.65 74 1013.1
20260506150513 52 31 4.0 11.0 0.00 1.30 0.65 75 1013.0
20260506150030 52 4 7.0 11.0 0.00 1.30 0.65 74 1013.1
20260506145512 52 345 3.0 10.0 0.00 1.30 0.65 76 1013.0
20260506145018 52 43 3.0 10.0 0.00 1.30 0.65 76 1013.0
20260506144530 52 300 5.0 10.0 0.00 1.30 0.65 76 1013.0
20260506144013 52 352 3.0 6.0 0.00 1.30 0.65 76 1013.1
20260506143517 52 49 2.0 9.0 0.00 1.30 0.65 77 1013.0
20260506143037 51 28 2.0 9.0 0.00 1.30 0.65 80 1012.9
20260506142513 50 47 3.0 11.0 0.00 1.30 0.65 79 1013.0
20260506142011 50 316 5.0 13.0 0.00 1.30 0.65 80 1012.8
20260506141540 50 50 6.0 13.0 0.00 1.30 0.65 81 1012.5
20260506141013 49 353 7.0 13.0 0.00 1.30 0.65 79 1012.4
20260506140512 49 9 4.0 12.0 0.00 1.30 0.65 81 1012.3
20260506140034 49 359 6.0 12.0 0.00 1.30 0.65 81 1012.2
20260506135514 49 319 6.0 11.0 0.00 1.30 0.65 83 1012.4
20260506135012 48 46 6.0 11.0 0.00 1.30 0.65 82 1012.4
20260506134530 48 1 4.0 8.0 0.00 1.30 0.65 85 1012.2
20260506134014 48 346 5.0 10.0 0.00 1.30 0.65 84 1012.3
20260506133514 47 7 5.0 10.0 0.00 1.30 0.65 83 1012.2
20260506133030 47 45 2.0 6.0 0.00 1.30 0.65 85 1012.4
20260506132514 47 9 2.0 9.0 0.00 1.30 0.65 85 1012.1
20260506132015 47 25 5.0 9.0 0.00 1.30 0.65 86 1012.1
20260506131533 47 349 2.0 9.0 0.00 1.30 0.65 86 1012.0
20260506131014 46 353 5.0 11.0 0.00 1.30 0.65 86 1011.9
20260506130514 46 2 4.0 11.0 0.00 1.30 0.65 87 1011.8
20260506130033 46 332 5.0 10.0 0.00 1.30 0.65 86 1011.8
20260506125514 46 31 2.0 5.0 0.00 1.30 0.65 87 1012.1
20260506125015 46 29 2.0 6.0 0.00 1.30 0.65 87 1011.9
20260506124534 46 25 2.0 6.0 0.00 1.30 0.65 88 1011.6
20260506124013 46 4 2.0 5.0 0.00 1.30 0.65 87 1011.9
20260506123511 46 16 3.0 5.0 0.00 1.30 0.65 88 1011.6
20260506123030 46 20 1.0 5.0 0.00 1.30 0.65 88 1011.8
20260506122513 46 334 2.0 9.0 0.00 1.30 0.65 88 1011.9
20260506122013 46 356 1.0 9.0 0.00 1.30 0.65 89 1011.6
20260506121530 46 46 4.0 8.0 0.00 1.30 0.65 89 1011.5
20260506121012 46 28 3.0 8.0 0.00 1.30 0.65 90 1011.5
20260506120515 46 317 3.0 6.0 0.00 1.30 0.65 90 1011.7
20260506120049 45 352 2.0 5.0 0.00 1.30 0.65 90 1011.8
20260506115514 45 25 0.0 4.0 0.00 1.30 0.65 91 1012.0
20260506115012 45 351 0.0 7.0 0.00 1.30 0.65 91 1011.5
20260506114534 45 28 1.0 7.0 0.00 1.30 0.65 91 1011.4
20260506114013 45 336 3.0 7.0 0.00 1.30 0.65 90 1011.2
20260506113515 45 327 1.0 4.0 0.00 1.30 0.65 91 1011.2
20260506113034 45 14 1.0 5.0 0.00 1.30 0.65 90 1011.2
20260506112514 45 315 1.0 5.0 0.00 1.30 0.65 89 1011.1
20260506112013 45 44 2.0 6.0 0.00 1.30 0.65 89 1010.9
20260506111531 45 0 2.0 8.0 0.00 1.30 0.65 88 1010.8
20260506111014 45 311 2.0 9.0 0.00 1.30 0.65 88 1010.9
20260506110514 45 44 5.0 9.0 0.00 1.30 0.65 88 1010.3
20260506110032 45 0 2.0 7.0 0.00 1.30 0.65 90 1010.2
20260506105517 45 45 2.0 7.0 0.00 1.30 0.65 90 1010.2
20260506105013 46 33 3.0 7.0 0.00 1.30 0.65 91 1010.2
20260506104539 46 359 2.0 10.0 0.00 1.30 0.65 91 1010.6
20260506104019 46 311 2.0 10.0 0.00 1.30 0.65 91 1010.2
20260506103514 46 52 5.0 13.0 0.00 1.30 0.65 91 1009.9
20260506103040 46 341 8.0 13.0 0.00 1.30 0.65 91 1009.7
20260506102520 46 330 3.0 8.0 0.00 1.30 0.65 93 1009.8
20260506102014 46 13 5.0 8.0 0.00 1.30 0.65 93 1009.7
20260506101532 46 326 3.0 8.0 0.00 1.30 0.65 93 1009.5
20260506101012 46 4 3.0 7.0 0.00 1.30 0.65 92 1009.2
20260506100516 47 34 3.0 12.0 0.00 1.30 0.65 93 1009.0
20260506100031 47 8 4.0 12.0 0.00 1.30 0.65 92 1009.5
20260506095513 47 34 5.0 12.0 0.00 1.30 0.65 92 1009.3
20260506095014 47 3 5.0 10.0 0.00 1.30 0.65 93 1008.9
20260506094534 47 15 5.0 10.0 0.00 1.30 0.65 93 1008.9
20260506094013 47 355 2.0 10.0 0.00 1.30 0.65 94 1008.9
20260506093515 47 352 3.0 10.0 0.00 1.30 0.65 93 1008.9
20260506093031 47 18 4.0 12.0 0.00 1.30 0.65 93 1008.8
20260506092513 47 23 6.0 12.0 0.00 1.30 0.65 93 1008.7
20260506092017 47 44 5.0 12.0 0.00 1.30 0.65 93 1008.9
20260506091530 48 41 6.0 11.0 0.00 1.30 0.65 93 1008.7
20260506091013 48 22 4.0 11.0 0.00 1.30 0.65 93 1008.7
20260506090512 48 43 2.0 15.0 0.00 1.30 0.65 94 1008.7
20260506090031 48 43 4.0 15.0 0.00 1.30 0.65 93 1008.4
20260506085512 48 32 7.0 15.0 0.00 1.30 0.65 93 1008.3
20260506085012 48 35 4.0 8.0 0.00 1.30 0.65 94 1008.7
20260506084608 48 323 3.0 8.0 0.00 1.30 0.65 94 1008.9
20260506084019 48 352 4.0 14.0 0.01 1.30 0.65 94 1008.8
20260506083514 48 350 6.0 14.0 0.01 1.30 0.65 93 1008.7
20260506083037 48 345 5.0 11.0 0.01 1.30 0.65 94 1008.5
20260506082514 48 323 5.0 14.0 0.01 1.30 0.65 94 1008.5
20260506082011 48 11 5.0 14.0 0.02 1.30 0.65 93 1008.1
20260506081540 48 37 8.0 14.0 0.02 1.30 0.65 93 1008.0
20260506081014 49 32 8.0 16.0 0.02 1.30 0.65 93 1007.8
20260506080514 49 32 7.0 16.0 0.02 1.30 0.65 93 1007.8
20260506073514 50 338 8.0 16.0 0.07 1.29 0.64 94 1007.4
20260506073030 50 41 6.0 14.0 0.07 1.29 0.64 95 1007.2
20260506072513 50 42 8.0 15.0 0.08 1.29 0.64 95 1007.1
20260506072013 50 259 4.0 15.0 0.08 1.28 0.63 95 1007.2
20260506071534 50 322 5.0 9.0 0.09 1.28 0.63 95 1006.9
20260506071012 50 45 4.0 9.0 0.09 1.28 0.63 95 1006.8
20260506070512 50 311 4.0 11.0 0.10 1.28 0.63 95 1007.1
20260506062512 51 320 5.0 11.0 0.09 1.21 0.56 95 1006.9
20260506062016 51 337 5.0 11.0 0.09 1.20 0.55 95 1006.6
20260506061530 51 296 5.0 9.0 0.10 1.19 0.54 95 1006.8
20260506061014 51 326 2.0 7.0 0.11 1.17 0.52 95 1006.7
20260506060515 51 347 2.0 7.0 0.13 1.16 0.52 95 1006.4
20260506051014 58 291 0.0 4.0 0.36 1.07 0.42 96 1006.2
20260506050513 58 266 1.0 7.0 0.34 1.04 0.39 96 1006.2
20260506045014 58 245 3.0 7.0 0.36 0.99 0.34 96 1006.5
20260506044536 58 264 1.0 4.0 0.34 0.97 0.32 96 1006.5
20260506044011 58 278 1.0 6.0 0.32 0.95 0.30 96 1006.6
20260506043513 58 323 2.0 6.0 0.24 0.87 0.22 96 1006.5
20260506043030 58 335 2.0 4.0 0.17 0.80 0.15 96 1006.4
20260506042511 58 300 1.0 9.0 0.15 0.77 0.12 96 1006.4
20260506042015 58 285 3.0 9.0 0.13 0.74 0.09 95 1006.4
20260506041533 58 0 0.0 4.0 0.11 0.72 0.07 96 1006.2
20260506041013 58 0 0.0 6.0 0.11 0.71 0.06 95 1006.2
20260506040513 58 139 2.0 6.0 0.11 0.69 0.04 95 1006.3
20260506040036 59 293 1.0 5.0 0.07 0.65 0.00 95 1006.3
20260506035514 59 211 1.0 7.0 0.06 0.64 0.64 95 1006.2
20260506035013 59 143 3.0 7.0 0.05 0.63 0.63 95 1006.2
20260506034533 59 0 2.0 6.0 0.06 0.63 0.63 95 1006.4
20260506034014 59 183 2.0 6.0 0.06 0.63 0.63 95 1006.4